STARLINK-32309, 61676

Orbit data source: Space-Track

STARLINK-32309, 61676 is a payload satellite owned by SpaceX/Seattle (US) in LEO that was launched on Sat, 26 Oct 2024 UTC via an FALCON 9 launch vehicle from the Air Force Eastern Test Range (AFETR). Payload-class satellites include a variety of spacecraft equipped with specific instruments for various scientific and technological missions. These include communications satellites like Starlink; space stations such as the ISS; scientific satellites like the Hubble; Earth observation satellites from companies like Planet Labs, Umbra, and HawkEye 360; GPS; miniature CubeSats for education and research; and military/defense satellites.

Loading next visibility...
Identifier
61676, 2024-193R
Orbit
LEO
Country
Flag of USUS
Related business
Manufacturer
SpaceX/Seattle
Mission
Operational Commercial Communications
Bus & Motor
STARLINK V2M, Unknown motor
Mass
730 kg wet, ~700 kg dry
Launch date (UTC)
2024-10-26 (1 year ago)
Launch vehicle
FALCON 9
Launch site
Air Force Eastern Test Range (AFETR)
Object type
Payload
Rocket body
Debris
Shape & HBR
Box + 2 Pan, 17.7 m
Radar Cross Section
33.884 m², Large (>1 m²)

Expand to show TLE details & history
Last TLE update: 2 days ago

TLE from 2 days ago
0 STARLINK-32309
1 61676U 24193R   25289.48944330 -.00001223  00000-0 -29187-4 0  9997
2 61676  53.1611  40.4646 0001338  92.5058 267.6096 15.30182924 54452
Epoch: 2025-10-16T11:44Z
TLE epoch observation values (Epoch: 2025-10-16T11:44:47.901Z)
Latitude
Longitude
-160.98342°
Altitude
476.204 km
Speed
7.629 km/s
True Right ascension
02h 41m 51s
True Declination
0° 00' 00"
Sunlit
Object was in full shadow at epoch
Visualization orbit readout
Latitude
Unknown
Longitude
Unknown
Altitude
Unknown
Speed
Unknown
Apparent Right ascension
Unknown
Apparent Declination
Unknown
Sunlit
N/A
Visualization observer readout
Local Sidereal Time
19:39:51
Azimuth
Unknown
Elevation
Unknown
Doppler factor
Unknown
Orbital elements
Apogee altitude
476.439 km
Perigee altitude
474.605 km
Semi-major axis
6,853.659 km
Eccentricity
0.00013
Inclination
53.1611°
RAAN
40.4646°
Arg. of periapsis
92.5058°
True anomaly
267.59428°
Mean anomaly
267.6096°
Eccentric anomaly
267.60194°
Mean motion
3.82525 °/min
Orbital period
94.11 mins
BSTAR
-0.000029187
Loading maneuver chart data...
Computing Atmospheric mass density...
Loading historical data...
Loading historical data...
Loading historical data...
Loading historical data...
Loading historical data...
Loading historical data...
Loading historical data...

Documentation

Showing up to 5 results
|